Probability
0 0 0 0 0 0 0 0 0 0 0 0 0 0 0 0 0 0 0 0 0 0 0 0 0 0 0 0 0 0 0 0 0 0 0 0 0 0 0 0 0 0 0 0
0 0 0 0 0 0 0 0 0 0 0 0 0 0 0 0 0 0 0 0 0 0 0 0 0 0 0 0 0 0 0 0 0 0 0 0 0 0 0 0 0 0 0 0
0 0 0 0 0 0 0 0 0 0 0 0 0 0 0 0 0 0 0 0 0 0 0 0 0 0 0 0 0 0 0 0 0 0 0 0 0 0 0 0 0 0 0 0
0 0 0 0 0 0 0 0 0 0 0 0 0 0 0 0 0 0 0 0 0 0 0 0 0 0 0 0 0 0 0 0 0 0 0 0 0 0 0 0 0 0 0 0
0 0 0 0 0 0 0 0 0 0 0 0 0 0 0 0 0 0 0 0 0 0 0 0 0 0 0 0 0 0 0 0 0 0 0 0 0 0 0 0 0 0 0 0
0 0 0 0 0 0 0 0 0 0 0 0 0 0 0 0 0 0 0 0 0 0 0 0 0 0 0 0 0 0 0 0 0 0 0 0 0 0 0 0 0 0 0 0
0 0 0 0 0 0 0 0 0 0 0 0 0 0 0 0 0 0 0 0 0 0 0 0 0 0 0 0 0 0 0 0 0 0 0 0 0 0 0 0 0 0 0 0
0 0 0 0 0 0 0 0 0 0 0 0 0 0 0 0 0 0 0 0 0 0 0 0 0 0 0 0 0 0 0 0 0 0 0 0 0 0 0 0 0 0 0 0
0 0 0 0 0 0 0 0 0 0 0 0 0 0 0 0 0 0 0 0 0 0 0 0 0 0 0 0 0 0 0 0 0 0 0 0 0 0 0 0 0 0 0 0
0 0 0 0 0 0 0 0 0 0 0 0 0 0 0 0 0 0 0 0 0 0 0 0 0 0 0 0 0 0 0 0 0 0 0 0 0 0 0 0 0 0 0 0
0 0 0 0 0 0 0 0 0 0 0 0 0 0 0 0 0 0 0 0 0 0 0 0 0 0 0 0 0 0 0 0 0 0 0 0 0 0 0 0 0 0 0 0
0 0 0 0 0 0 0 0 0 0 0 0 0 0 0 0 0 0 0 0 0 0 0 0 0 0 0 0 0 0 0 0 0 0 0 0 0 0 0 0 0 0 0 0
0 0 0 0 0 0 0 0 0 0 0 0 0 0 0 0 0 0 0 0 0 0 0 0 0 0 0 0 0 0 0 0 0 0 0 0 0 0 0 0 0 0 0 0
0 0 0 0 0 0 0 0 0 0 0 0 0 0 0 0 0 0 0 0 0 0 0 0 0 0 0 0 0 0 0 0 0 0 0 0 0 0 0 0 0 0 0 0
0 0 0 0 0 0 0 0 0 0 0 0 0 0 0 0 0 0 0 0 0 0 0 0 0 0 0 0 0 0 0 0 0 0 0 0 0 0 0 0 0 0 0 0
0 0 0 0 0 0 0 0 0 0 0 0 0 0 0 0 0 0 0 0 0 0 0 0 0 0 0 0 0 0 0 0 0 0 0 0 0 0 0 0 0 0 0 0
0 0 0 0 0 0 0 0 0 0 0 0 0 0 0 0 0 0 0 0 0 0 0 0 0 0 0 0 0 0 0 0 0 0 0 0 0 0 0 0 0 0 0 0
0 0 0 0 0 0 0 0 0 0 0 0 0 0 0 0 0 0 0 0 0 0 0 0 0 0 0 0 0 0 0 0 0 0 0 0 0 0 0 0 0 0 0 0
0 0 0 0 0 0 0 0 0 0 0 0 0 0 0 0 0 0 0 0 0 0 0 0 0 0 0 0 0 0 0 0 0 0 0 0 0 0 0 0 0 0 0 0
0 0 0 0 0 0 0 0 0 0 0 0 0 0 0 0 0 0 0 0 0 0 0 0 0 0 0 0 0 0 0 0 0 0 0 0 0 0 0 0 0 0 0 0
0 0 0 0 0 0 0 0 0 0 0 0 0 0 0 0 0 0 0 0 0 0 0 0 0 0 0 0 0 0 0 0 0 0 0 0 0 0 0 0 0 0 0 0
0 0 0 0 0 0 0 0 0 0 0 0 0 0 0 0 0 0 0 0 0 0 0 0 0 0 0 0 0 0 0 0 0 0 0 0 0 0 0 0 0 0 0 0
0 0 0 0 0 0 0 0 0 0 0 0 0 0 0 0 0 0 0 0 0 0 0 0 0 0 0 0 0 0 0 0 0 0 0 0 0 0 0 0 0 0 0 0
0 0 0 0 0 0 0 0 0 0 0 0 0 0 0 0 0 0 0 0 0 0 0 0 0 0 0 0 0 0 0 0 0 0 0 0 0 0 0 0 0 0 0 0
0 0 0 0 0 0 0 0 0 0 0 0 0 0 0 0 0 0 0 0 0 0 0 0 0 0 0 0 0 0 0 0 0 0 0 0 0 0 0 0 0 0 0 0
0 0 0 0 0 0 0 0 0 0 0 0 0 0 0 0 0 0 0 0 0 0 0 0 0 0 0 0 0 0 0 0 0 0 0 0 0 0 0 0 0 0 0 0
Height
5735 5732 5728 5724 5721 5717 5713 5710 5707 5704 5701 5698 5696 5694 5693 5692 5691 5691 5693 5695 5699 5702 5706 5709 5713 5717 5721 5725 5729 5732 5736 5740 5744 5748 5751 5755 5758 5760 5763 5766 5768 5771 5773 5776
5733 5729 5726 5722 5718 5715 5711 5708 5705 5703 5699 5696 5694 5693 5691 5690 5689 5689 5690 5693 5696 5699 5702 5706 5709 5713 5717 5721 5724 5727 5731 5734 5738 5741 5745 5748 5751 5754 5756 5759 5761 5764 5766 5768
5730 5727 5723 5720 5716 5713 5710 5707 5704 5701 5698 5695 5693 5691 5690 5688 5687 5687 5689 5690 5693 5696 5699 5702 5706 5709 5713 5716 5719 5722 5726 5729 5732 5735 5738 5741 5744 5746 5749 5752 5754 5756 5758 5760
5728 5725 5721 5718 5715 5712 5709 5706 5703 5700 5697 5695 5692 5690 5690 5687 5687 5686 5687 5689 5691 5693 5696 5698 5701 5704 5708 5711 5714 5718 5720 5723 5726 5729 5732 5734 5737 5739 5742 5744 5747 5749 5751 5752
5726 5723 5719 5717 5714 5710 5708 5705 5702 5699 5696 5694 5691 5689 5690 5687 5686 5686 5687 5687 5689 5690 5693 5695 5698 5700 5703 5706 5709 5712 5715 5718 5721 5723 5726 5728 5730 5732 5735 5738 5739 5741 5742 5744
5725 5722 5718 5715 5712 5709 5706 5704 5701 5698 5696 5694 5691 5689 5689 5687 5686 5685 5685 5686 5687 5688 5690 5692 5694 5696 5699 5702 5705 5707 5709 5712 5714 5717 5719 5721 5723 5725 5727 5729 5731 5733 5734 5735
5723 5720 5717 5714 5711 5708 5705 5703 5700 5697 5695 5693 5690 5688 5688 5686 5685 5684 5684 5684 5685 5686 5688 5689 5691 5694 5696 5698 5700 5702 5704 5706 5708 5711 5713 5714 5717 5718 5720 5721 5723 5724 5725 5726
5721 5719 5716 5712 5710 5707 5704 5701 5699 5696 5693 5692 5690 5687 5687 5685 5683 5682 5682 5682 5682 5683 5685 5686 5688 5690 5692 5694 5695 5697 5699 5701 5703 5705 5706 5708 5710 5711 5713 5714 5715 5715 5717 5718
5719 5717 5714 5711 5708 5705 5703 5700 5698 5695 5692 5690 5689 5687 5685 5684 5682 5681 5680 5680 5680 5680 5681 5683 5685 5686 5688 5689 5691 5692 5694 5696 5697 5698 5700 5701 5702 5704 5705 5706 5707 5707 5708 5709
5716 5715 5712 5709 5707 5704 5702 5699 5697 5694 5691 5688 5687 5685 5684 5681 5680 5679 5678 5677 5677 5677 5678 5679 5680 5682 5683 5684 5685 5686 5688 5690 5691 5692 5693 5694 5695 5696 5696 5697 5698 5699 5700 5700
5713 5712 5710 5707 5705 5702 5700 5697 5694 5692 5689 5687 5684 5686 5682 5680 5678 5676 5675 5674 5674 5674 5675 5676 5677 5677 5678 5679 5680 5682 5683 5683 5684 5685 5686 5686 5687 5688 5688 5689 5690 5690 5691 5691
5710 5709 5707 5705 5703 5700 5697 5695 5692 5691 5688 5685 5682 5684 5680 5677 5675 5673 5672 5671 5670 5670 5671 5672 5673 5673 5674 5675 5676 5676 5677 5677 5678 5678 5679 5679 5680 5680 5680 5680 5680 5681 5681 5681
5706 5705 5703 5702 5701 5698 5695 5692 5689 5687 5685 5682 5680 5682 5677 5675 5673 5671 5669 5668 5667 5667 5667 5667 5668 5668 5669 5670 5670 5670 5670 5671 5671 5671 5671 5672 5672 5672 5672 5671 5671 5671 5671 5671
5701 5700 5699 5698 5695 5693 5691 5689 5686 5684 5681 5679 5677 5676 5675 5672 5669 5668 5666 5665 5664 5663 5663 5663 5663 5663 5664 5664 5664 5664 5664 5663 5664 5663 5663 5664 5664 5663 5663 5662 5662 5661 5661 5660
5695 5695 5693 5692 5690 5688 5686 5685 5682 5680 5678 5675 5674 5672 5670 5668 5666 5664 5663 5661 5660 5659 5659 5658 5658 5658 5658 5658 5657 5657 5656 5656 5655 5655 5655 5655 5654 5654 5653 5653 5652 5651 5650 5650
5689 5688 5687 5687 5685 5683 5681 5680 5678 5675 5673 5671 5669 5668 5666 5663 5662 5660 5658 5657 5656 5655 5654 5653 5653 5652 5651 5651 5650 5649 5648 5648 5647 5647 5646 5646 5645 5644 5644 5643 5641 5641 5640 5639
5683 5682 5680 5680 5679 5677 5677 5675 5672 5671 5668 5666 5664 5664 5661 5659 5657 5655 5653 5652 5650 5649 5648 5647 5646 5645 5644 5643 5642 5641 5640 5639 5639 5638 5637 5637 5636 5635 5634 5632 5631 5630 5629 5627
5676 5674 5673 5672 5672 5671 5672 5668 5666 5664 5663 5661 5659 5657 5655 5653 5651 5649 5647 5645 5644 5642 5641 5640 5639 5638 5637 5635 5633 5632 5631 5631 5630 5629 5628 5627 5626 5625 5623 5622 5620 5619 5617 5616
5668 5667 5665 5664 5663 5663 5664 5661 5659 5657 5656 5654 5652 5651 5649 5647 5645 5643 5640 5638 5636 5634 5633 5632 5630 5629 5628 5626 5624 5623 5622 5621 5620 5619 5618 5617 5616 5614 5613 5611 5609 5607 5606 5604
5660 5659 5658 5656 5655 5655 5657 5654 5650 5650 5648 5647 5645 5643 5641 5639 5637 5636 5633 5631 5628 5626 5624 5622 5621 5620 5618 5616 5615 5613 5612 5611 5610 5609 5607 5606 5605 5603 5602 5600 5598 5596 5595 5593
5651 5650 5649 5647 5645 5646 5647 5645 5643 5642 5642 5639 5637 5635 5633 5631 5629 5627 5624 5622 5620 5617 5615 5613 5611 5609 5608 5606 5604 5603 5602 5600 5599 5598 5597 5595 5594 5592 5591 5589 5587 5585 5583 5582
5641 5640 5640 5638 5637 5640 5637 5635 5634 5633 5631 5629 5628 5626 5624 5622 5619 5617 5615 5612 5610 5608 5606 5603 5601 5599 5597 5595 5594 5592 5591 5589 5588 5587 5586 5584 5583 5581 5579 5577 5576 5574 5572 5570
5630 5630 5629 5629 5630 5628 5626 5624 5623 5622 5621 5619 5618 5616 5614 5612 5609 5607 5605 5602 5599 5597 5595 5592 5590 5589 5587 5585 5583 5581 5580 5578 5577 5575 5574 5573 5571 5569 5567 5565 5564 5562 5560 5558
5619 5618 5618 5618 5618 5617 5615 5613 5612 5611 5610 5608 5607 5605 5603 5601 5599 5596 5594 5591 5589 5586 5583 5581 5579 5577 5576 5574 5572 5569 5568 5566 5565 5563 5562 5560 5559 5557 5555 5553 5551 5549 5548 5546
5607 5606 5605 5606 5606 5604 5604 5602 5601 5599 5598 5597 5595 5593 5591 5589 5587 5585 5582 5579 5577 5574 5572 5569 5567 5565 5564 5562 5560 5558 5556 5554 5552 5551 5549 5548 5546 5544 5543 5541 5539 5537 5535 5533
5596 5594 5593 5593 5593 5592 5592 5590 5588 5587 5586 5585 5583 5582 5579 5577 5575 5572 5570 5567 5564 5562 5559 5557 5555 5553 5551 5549 5548 5546 5544 5541 5540 5538 5537 5535 5533 5531 5529 5528 5526 5524 5522 5520
Wind_Speed
19 19 20 20 21 20 19 19 18 18 17 17 16 14 13 13 14 16 18 20 22 23 25 27 28 28 28 29 30 31 33 35 36 35 33 33 34 35 36 35 34 34 33 33
19 19 19 19 19 19 18 18 18 17 17 17 16 13 13 13 14 14 16 19 20 22 24 25 26 27 28 27 28 29 30 33 35 36 34 34 34 34 36 36 35 35 35 34
19 19 18 18 18 18 18 18 17 16 16 16 16 14 13 13 13 13 14 16 19 20 21 22 24 25 25 26 27 27 29 31 34 35 35 36 34 34 35 37 36 35 35 35
19 18 18 18 17 17 17 17 16 15 16 15 15 14 11 11 12 12 13 14 18 20 21 21 21 21 24 25 26 27 28 29 32 32 33 33 33 33 33 35 37 37 36 36
18 18 17 17 18 18 17 17 16 16 15 15 15 14 12 12 11 11 12 14 16 18 19 20 20 21 22 24 26 27 28 29 30 30 30 31 32 33 34 35 36 36 36 36
18 18 18 17 17 18 17 17 17 15 15 15 14 14 13 13 13 12 12 13 15 18 20 20 21 21 22 23 25 26 26 27 28 29 30 31 32 32 33 34 36 37 38 38
18 18 18 17 17 17 17 17 17 16 15 15 15 15 14 13 13 13 13 14 15 17 20 22 22 22 23 23 25 26 26 26 27 29 30 31 31 31 32 33 35 37 38 39
18 18 18 17 17 17 17 17 18 18 17 15 15 14 14 14 14 13 14 14 15 17 19 20 21 21 23 24 25 25 26 27 27 28 29 31 32 33 34 34 35 36 37 38
18 18 18 17 17 17 18 18 18 18 18 17 16 15 15 14 14 14 14 15 16 17 18 20 21 22 24 24 25 26 27 28 28 28 29 30 32 34 35 35 35 36 37 38
18 18 18 18 17 17 18 19 18 18 20 19 17 17 15 15 14 14 14 15 16 17 19 21 22 22 23 24 24 25 26 28 29 29 30 31 32 34 35 35 35 35 36 37
19 18 18 18 18 17 18 18 19 19 20 20 18 17 16 16 15 14 15 16 16 17 19 20 22 22 23 24 25 26 27 28 29 29 30 32 33 34 34 34 35 35 35 36
20 19 18 19 19 19 18 18 19 20 20 20 19 18 18 17 16 16 16 17 17 18 19 20 21 21 22 23 24 25 26 28 29 29 30 31 32 33 34 35 35 36 37 37
22 21 21 20 21 21 20 20 20 20 20 20 20 19 19 18 17 17 17 17 18 19 19 20 21 21 22 23 25 25 26 27 28 29 30 31 32 33 34 35 36 36 38 39
24 23 23 23 22 23 22 22 22 22 22 21 21 21 20 19 19 18 18 19 19 19 20 20 21 22 23 25 27 28 28 28 29 30 31 32 33 34 35 36 37 38 39 39
25 25 25 24 24 24 23 23 23 23 22 23 22 22 21 20 20 20 20 20 19 19 20 21 23 24 25 27 29 30 30 31 31 31 32 33 35 35 36 37 38 39 40 40
27 27 27 26 26 26 25 24 24 24 24 23 23 23 22 22 22 22 22 22 21 21 22 23 24 26 27 29 30 31 31 32 33 33 33 35 36 36 37 37 37 38 40 41
28 29 29 28 27 27 26 25 25 25 24 24 24 24 24 24 24 23 23 23 23 23 24 24 26 27 29 30 31 31 32 33 33 34 34 35 36 37 37 39 39 39 40 41
30 30 31 31 30 29 27 27 26 27 26 26 25 25 25 26 26 26 26 26 26 26 27 27 28 29 30 31 32 32 32 33 33 33 34 34 35 36 37 39 39 39 40 41
32 32 33 33 32 31 29 28 29 29 27 27 27 27 27 28 28 28 28 28 29 30 30 31 31 32 33 34 34 34 33 34 34 34 35 36 37 38 39 39 40 40 41 41
33 33 34 34 34 33 31 31 31 31 31 29 29 30 30 30 30 30 31 31 31 32 33 34 34 35 35 36 36 35 35 35 35 36 37 38 38 39 40 40 41 41 41 41
35 35 35 35 36 34 33 34 34 34 33 32 32 32 32 33 33 33 33 34 34 34 35 36 37 37 37 37 37 36 36 36 37 38 38 39 39 40 40 40 41 42 42 42
38 38 37 37 37 35 35 36 36 36 35 34 34 35 35 36 36 36 36 36 36 37 37 38 38 38 38 38 38 38 38 38 39 39 39 39 40 41 41 41 42 43 42 42
40 40 39 38 38 37 38 38 38 38 38 37 37 37 38 38 38 39 38 39 39 39 39 39 39 39 39 39 40 40 40 40 40 40 40 40 41 41 42 42 42 43 43 44
41 41 41 40 39 39 40 40 41 41 40 40 39 40 40 40 40 40 40 40 41 40 40 41 41 40 40 40 40 40 41 41 41 41 42 42 42 42 42 43 43 43 44 44
42 43 43 42 41 42 42 43 43 43 43 42 42 42 43 43 43 43 42 42 42 42 42 42 42 41 41 41 41 41 41 41 42 42 42 43 43 43 44 44 44 44 45 45
43 43 44 44 43 45 45 45 45 45 44 44 44 43 44 44 44 43 44 44 44 43 43 42 42 42 41 41 42 42 42 42 42 43 43 43 44 44 44 44 44 44 45 45
Wind_Direction
324 326 328 327 325 323 320 319 318 318 315 310 309 304 295 288 275 262 247 238 235 231 230 228 229 230 231 233 234 235 237 235 235 237 241 242 242 243 243 243 244 245 249 251
325 325 329 329 327 325 322 323 321 318 315 315 313 308 300 295 285 269 251 240 236 234 234 233 232 232 233 235 237 238 240 239 238 239 243 244 245 244 243 244 246 247 251 254
326 327 329 330 330 329 325 325 325 321 319 317 315 308 304 298 288 277 257 247 241 237 236 235 235 236 235 237 238 241 243 242 241 241 244 244 243 245 244 245 246 249 252 254
327 327 329 330 329 329 328 328 328 324 321 322 319 316 311 303 297 284 265 254 247 242 240 238 236 235 235 237 239 242 243 243 241 243 247 243 244 245 245 247 250 251 254 255
328 329 329 330 331 329 327 327 327 326 322 319 319 317 315 306 298 289 269 261 255 248 246 243 241 239 239 240 242 244 244 246 246 246 246 245 246 247 247 251 252 253 256 257
326 328 328 328 331 331 328 327 326 325 322 319 320 316 314 307 301 293 279 268 262 256 252 248 245 245 245 246 247 247 246 249 249 248 248 247 247 250 251 252 254 255 257 258
323 326 328 329 328 329 331 330 329 328 325 321 320 315 313 308 302 293 282 277 269 261 255 252 250 250 250 250 250 251 248 251 252 250 250 249 248 250 253 254 255 256 257 259
321 323 327 328 328 328 330 330 331 328 326 322 321 317 311 307 303 294 285 281 275 265 258 255 251 251 252 251 251 252 250 252 253 252 252 252 250 252 254 256 258 258 259 260
317 319 321 324 325 327 329 329 328 327 327 327 324 319 312 309 303 295 287 283 277 267 261 258 255 255 255 254 253 253 253 253 254 254 254 253 253 254 255 258 261 262 261 263
310 313 316 318 320 324 326 325 324 324 325 326 326 323 318 311 307 299 289 283 279 269 263 260 258 258 257 257 258 257 255 254 255 256 256 256 256 256 257 260 264 264 265 266
306 308 312 314 317 320 322 322 321 319 318 320 322 324 321 316 309 301 293 288 281 274 266 261 262 261 261 262 263 263 261 258 258 258 259 260 259 259 261 264 265 265 267 268
301 302 305 309 312 315 314 316 317 318 318 316 315 318 318 314 307 300 295 292 285 278 268 265 266 267 266 266 267 267 266 264 262 262 262 262 263 263 265 267 267 267 268 269
295 298 301 304 306 309 309 310 311 312 313 313 311 311 312 310 305 300 294 289 286 281 273 269 268 268 271 272 272 271 270 268 267 266 265 266 266 267 268 271 270 269 269 270
291 292 296 301 302 303 304 303 304 305 307 307 306 307 308 307 304 301 295 290 285 281 278 274 273 273 274 274 275 274 272 270 268 268 267 268 268 269 269 271 273 273 272 271
288 290 292 295 297 298 299 298 300 302 303 303 303 304 305 305 302 300 296 292 287 281 278 276 274 275 276 276 276 275 273 272 272 271 271 272 271 271 272 274 274 274 274 273
285 287 288 291 293 294 296 296 296 298 299 299 300 301 302 302 301 300 297 294 288 283 279 277 276 276 277 277 277 275 273 273 273 272 272 274 273 274 274 275 278 277 277 276
283 285 286 288 289 290 292 294 295 296 296 296 296 298 299 300 299 298 296 293 290 286 283 281 281 279 279 280 280 278 276 276 275 274 275 275 275 277 277 277 278 280 280 279
281 283 285 286 287 288 291 292 293 293 293 293 294 295 296 297 297 297 296 293 290 287 285 284 283 282 281 280 280 280 278 277 276 275 275 276 277 277 277 278 280 281 282 281
280 282 284 286 286 287 289 289 290 291 290 291 292 293 294 295 295 295 294 292 289 287 285 284 284 283 282 281 281 281 280 278 277 276 276 277 278 279 280 280 281 282 282 284
279 280 282 284 285 287 288 287 288 289 289 290 290 290 292 293 292 292 291 290 289 287 286 285 284 283 283 283 283 282 282 280 278 277 277 277 279 281 281 281 281 282 283 284
277 278 280 282 283 285 286 287 287 288 290 289 289 290 291 291 291 292 291 290 289 288 287 286 285 284 284 283 283 283 282 280 279 279 279 278 280 281 281 281 282 282 283 283
274 276 278 280 282 284 285 285 286 286 287 287 288 289 289 289 290 290 290 289 289 288 287 286 285 284 283 283 282 282 281 280 279 279 279 279 280 280 281 282 282 283 283 284
273 274 276 278 280 281 282 283 284 285 285 286 287 287 287 288 289 289 289 289 288 288 287 286 285 284 283 283 282 282 281 281 280 280 279 279 280 280 281 282 283 283 283 283
272 274 275 277 278 279 280 281 282 283 284 285 285 285 286 287 288 288 289 289 288 288 288 286 285 284 283 283 283 282 281 281 281 281 280 280 280 281 281 282 283 283 284 284
272 274 275 276 277 277 279 280 281 282 282 283 284 285 286 287 288 288 289 289 289 288 288 287 285 284 283 283 282 282 281 281 282 282 282 281 281 282 281 281 282 283 283 284
272 273 274 275 276 277 278 279 280 280 281 282 283 284 285 286 287 287 288 289 289 288 287 287 285 284 283 283 282 282 282 282 283 282 282 282 281 282 282 282 281 282 282 283